Boise, ID

7:32 AM MDT on September 21, 2017 (GMT -0600)
Boise Air Term

Weather History for KBOI - June, 2014

Change the Weather History Date:

Thursday, June 19, 2014

  Actual Average Record
Temperature  
Mean Temperature 68 °F 68 °F  
Max Temperature 85 °F 82 °F 109 °F (1940)
Min Temperature 50 °F 54 °F 37 °F (1996)
Degree Days  
Heating Degree Days 0 2  
Month to date heating degree days 36 52  
Since 1 June heating degree days 36 52  
Since 1 July heating degree days 5545 5502  
Cooling Degree Days 3 5  
Month to date cooling degree days 57 68  
Year to date cooling degree days 81 112  
Since 1 June cooling degree days 57 68  
Growing Degree Days 18 (Base 50)    
Moisture  
Dew Point 38 °F    
Average Humidity 43    
Maximum Humidity 71    
Minimum Humidity 14    
Precipitation  
Precipitation 0.00 in 0.02 in 0.46 in (1923)
Month to date precipitation 0.16 0.51  
Year to date precipitation 8.26 6.75  
Snow  
Snow 0.00 in 0.00 in 0.00 in (2007)
Month to date snowfall 0.0 0.0  
Since 1 July snowfall 14.4 19.2  
Snow Depth 0.00 in    
Sea Level Pressure  
Sea Level Pressure 29.97 in    
Wind  
Wind Speed 7 mph (SE)    
Max Wind Speed 13 mph    
Max Gust Speed 17 mph    
Visibility 10 miles    
Events      
T = Trace of Precipitation, MM = Missing Value Source: NWS Daily Summary

Daily Weather History Graph

Daily Weather History Graph

Search for Another Location

Airport or City:

Trip Planner

Search our weather history database for the weather conditions in past years. The results will help you decide how hot, cold, wet, or windy it might be!

Date:

Astronomy

Jun. 19, 2014 Rise Set
Actual Time 6:03 AM MDT 9:29 PM MDT
Civil Twilight 5:27 AM MDT 10:05 PM MDT
Nautical Twilight 4:40 AM MDT 10:52 PM MDT
Astronomical Twilight 3:41 AM MDT 11:51 PM MDT
Moon 1:23 AM MDT (6/19) 1:51 PM MDT (6/19)
Length of Visible Light 16h 37m
Length of Day
15h 25m
Waning Gibbous, 50% of the Moon is Illuminated
Jun 19
Waning Gibbous
Jun 19
Last Quarter
Jun 27
New
Jul 5
First Quarter
Jul 12
Full

Hourly Weather History & Observations

Time (MDT) Temp. Dew Point Humidity Pressure Visibility Wind Dir Wind Speed Gust Speed Precip Events Conditions
12:53 AM 55.4 °F 42.8 °F 63% 30.07 in 10.0 mi SE 8.1 mph - N/A   Clear
1:53 AM 53.1 °F 42.1 °F 66% 30.04 in 10.0 mi SE 9.2 mph - N/A   Clear
2:53 AM 51.1 °F 42.1 °F 71% 30.04 in 10.0 mi SE 9.2 mph - N/A   Clear
3:53 AM 51.8 °F 42.8 °F 71% 30.05 in 10.0 mi ESE 5.8 mph - N/A   Clear
4:53 AM 51.1 °F 41.0 °F 68% 30.03 in 10.0 mi ESE 8.1 mph - N/A   Clear
5:53 AM 51.1 °F 41.0 °F 68% 30.02 in 10.0 mi SE 8.1 mph - N/A   Clear
6:53 AM 52.0 °F 41.0 °F 66% 30.03 in 10.0 mi SE 6.9 mph - N/A   Clear
7:53 AM 57.0 °F 41.0 °F 55% 30.04 in 10.0 mi ESE 4.6 mph - N/A   Clear
8:53 AM 60.1 °F 44.1 °F 55% 30.05 in 10.0 mi North 3.5 mph - N/A   Clear
9:53 AM 64.0 °F 43.0 °F 46% 30.04 in 10.0 mi Variable 3.5 mph - N/A   Clear
10:53 AM 68.0 °F 41.0 °F 37% 30.03 in 10.0 mi SE 8.1 mph - N/A   Clear
11:53 AM 72.0 °F 39.9 °F 31% 30.02 in 10.0 mi South 10.4 mph - N/A   Clear
12:26 PM 73.4 °F 39.2 °F 29% 30.06 in 10.0 mi SSE 5.8 mph - N/A   Clear
12:53 PM 75.0 °F 39.0 °F 27% 30.00 in 10.0 mi South 6.9 mph - N/A   Clear
1:53 PM 78.1 °F 37.0 °F 23% 29.98 in 10.0 mi Variable 4.6 mph - N/A   Clear
2:53 PM 81.0 °F 35.1 °F 19% 29.96 in 10.0 mi West 5.8 mph - N/A   Clear
3:53 PM 82.0 °F 35.1 °F 18% 29.94 in 10.0 mi WNW 6.9 mph - N/A   Clear
4:53 PM 84.0 °F 35.1 °F 17% 29.92 in 10.0 mi NNE 9.2 mph - N/A   Clear
5:53 PM 82.9 °F 35.1 °F 18% 29.91 in 10.0 mi North 8.1 mph - N/A   Clear
6:53 PM 84.0 °F 30.0 °F 14% 29.88 in 10.0 mi NE 3.5 mph - N/A   Clear
7:53 PM 84.0 °F 30.9 °F 15% 29.86 in 10.0 mi North 8.1 mph - N/A   Clear
8:53 PM 80.1 °F 33.1 °F 18% 29.86 in 10.0 mi WNW 3.5 mph - N/A   Clear
9:53 PM 73.9 °F 37.0 °F 26% 29.87 in 10.0 mi SSW 3.5 mph - N/A   Clear
10:53 PM 69.1 °F 35.1 °F 29% 29.87 in 10.0 mi SSE 6.9 mph - N/A   Clear
11:53 PM 69.1 °F 34.0 °F 27% 29.85 in 10.0 mi ESE 6.9 mph - N/A   Clear